| time (UTC) | temp C | wind direction | speed KPH | gust KPH | rain 1hr cm | rain 24hr cm | rain mn cm | humidity % | barometer mb |
| 20260504234629 | 17 | 360 | 1.6 | 32.2 | 0.00 | 0.00 | 0.00 | 35 | 1003.1 |
| 20260504233058 | 18 | 360 | 0.0 | 12.9 | 0.00 | 0.00 | 0.00 | 33 | 1002.9 |
| 20260504231604 | 18 | 360 | 0.0 | 0.0 | 0.00 | 0.00 | 0.00 | 33 | 1002.8 |
| 20260504230058 | 18 | 360 | 0.0 | 6.4 | 0.00 | 0.00 | 0.00 | 33 | 1002.7 |
| 20260504224556 | 19 | 360 | 1.6 | 22.5 | 0.00 | 0.00 | 0.00 | 32 | 1002.7 |
| 20260504223055 | 18 | 360 | 6.4 | 19.3 | 0.00 | 0.00 | 0.00 | 32 | 1002.8 |
| 20260504221559 | 18 | 360 | 11.3 | 22.5 | 0.00 | 0.00 | 0.00 | 33 | 1002.8 |
| 20260504220053 | 19 | 360 | 17.7 | 32.2 | 0.00 | 0.00 | 0.00 | 31 | 1002.8 |
| 20260504214552 | 20 | 360 | 3.2 | 19.3 | 0.00 | 0.00 | 0.00 | 32 | 1002.6 |
| 20260504213052 | 19 | 360 | 1.6 | 22.5 | 0.00 | 0.00 | 0.00 | 32 | 1002.5 |
| 20260504211553 | 19 | 360 | 0.0 | 24.1 | 0.00 | 0.00 | 0.00 | 33 | 1002.7 |
| 20260504210106 | 20 | 360 | 3.2 | 22.5 | 0.00 | 0.00 | 0.00 | 32 | 1002.8 |
| 20260504204600 | 19 | 360 | 0.0 | 9.7 | 0.00 | 0.00 | 0.00 | 31 | 1002.8 |
| 20260504203050 | 19 | 360 | 0.0 | 17.7 | 0.00 | 0.00 | 0.00 | 30 | 1002.9 |
| 20260504201551 | 20 | 360 | 0.0 | 20.9 | 0.00 | 0.00 | 0.00 | 30 | 1003.0 |
| 20260504200045 | 19 | 22 | 1.6 | 19.3 | 0.00 | 0.00 | 0.00 | 32 | 1003.1 |
| 20260504194602 | 19 | 360 | 0.0 | 14.5 | 0.00 | 0.00 | 0.00 | 33 | 1003.1 |
| 20260504193045 | 19 | 360 | 0.0 | 20.9 | 0.00 | 0.00 | 0.00 | 32 | 1003.1 |
| 20260504191549 | 19 | 360 | 4.8 | 22.5 | 0.00 | 0.00 | 0.00 | 32 | 1003.3 |
| 20260504184546 | 19 | 360 | 8.0 | 25.7 | 0.00 | 0.00 | 0.00 | 32 | 1003.4 |
| 20260504183043 | 19 | 360 | 8.0 | 24.1 | 0.00 | 0.00 | 0.00 | 32 | 1003.6 |
| 20260504181544 | 18 | 360 | 1.6 | 29.0 | 0.00 | 0.00 | 0.00 | 34 | 1003.6 |
| 20260504180059 | 18 | 360 | 8.0 | 22.5 | 0.00 | 0.00 | 0.00 | 35 | 1003.2 |
| 20260504174536 | 17 | 360 | 8.0 | 24.1 | 0.00 | 0.00 | 0.00 | 36 | 1003.2 |
| 20260504173037 | 17 | 360 | 12.9 | 32.2 | 0.00 | 0.00 | 0.00 | 37 | 1003.3 |
| 20260504171532 | 18 | 360 | 6.4 | 27.4 | 0.00 | 0.00 | 0.00 | 39 | 1003.0 |
| 20260504140113 | 10 | 360 | 0.0 | 1.6 | 0.00 | 0.00 | 0.00 | 59 | 1002.1 |
| 20260504081600 | 9 | 360 | 0.0 | 16.1 | 0.00 | 0.00 | 0.00 | 57 | 1002.4 |
| 20260504044533 | 11 | 360 | 0.0 | 0.0 | 0.00 | 0.00 | 0.00 | 47 | 1003.6 |
| 20260504043033 | 12 | 360 | 0.0 | 0.0 | 0.00 | 0.00 | 0.00 | 46 | 1003.7 |
| 20260504041535 | 13 | 360 | 0.0 | 0.0 | 0.00 | 0.00 | 0.00 | 44 | 1003.9 |
| 20260504040033 | 13 | 360 | 0.0 | 0.0 | 0.00 | 0.00 | 0.00 | 41 | 1004.0 |
| 20260504034541 | 14 | 360 | 0.0 | 0.0 | 0.00 | 0.00 | 0.00 | 40 | 1004.0 |
| 20260504033032 | 15 | 360 | 0.0 | 0.0 | 0.00 | 0.00 | 0.00 | 39 | 1004.0 |
| 20260504031530 | 16 | 360 | 0.0 | 0.0 | 0.00 | 0.00 | 0.00 | 38 | 1003.9 |
| 20260504030038 | 16 | 71 | 0.0 | 0.0 | 0.00 | 0.00 | 0.00 | 37 | 1003.7 |
| 20260504024529 | 17 | 72 | 0.0 | 0.0 | 0.00 | 0.00 | 0.00 | 36 | 1003.8 |
| 20260504023029 | 18 | 360 | 0.0 | 0.0 | 0.00 | 0.00 | 0.00 | 33 | 1003.7 |
| 20260504021528 | 18 | 360 | 0.0 | 0.0 | 0.00 | 0.00 | 0.00 | 32 | 1003.6 |
| 20260504020030 | 18 | 360 | 0.0 | 0.0 | 0.00 | 0.00 | 0.00 | 32 | 1003.5 |
| 20260504014528 | 18 | 360 | 0.0 | 0.0 | 0.00 | 0.00 | 0.00 | 31 | 1003.4 |
| 20260504013028 | 19 | 360 | 0.0 | 9.7 | 0.00 | 0.00 | 0.00 | 30 | 1003.4 |
| 20260504011526 | 19 | 360 | 0.0 | 19.3 | 0.00 | 0.00 | 0.00 | 30 | 1003.3 |
| 20260504010025 | 19 | 360 | 1.6 | 19.3 | 0.00 | 0.00 | 0.00 | 30 | 1003.6 |
| 20260504004528 | 19 | 360 | 8.0 | 33.8 | 0.00 | 0.00 | 0.00 | 32 | 1003.8 |
| 20260504003024 | 20 | 360 | 0.0 | 20.9 | 0.00 | 0.00 | 0.00 | 30 | 1003.8 |
| 20260504001525 | 22 | 360 | 0.0 | 37.0 | 0.00 | 0.00 | 0.00 | 27 | 1003.8 |
| 20260504000022 | 23 | 360 | 0.0 | 8.0 | 0.00 | 0.00 | 0.00 | 19 | 1002.6 |